Time,TemperatureF,DewpointF,PressureIn,WindDirection,WindDirectionDegrees,WindSpeedMPH,WindSpeedGustMPH,Humidity,HourlyPrecipIn,Conditions,Clouds,dailyrainin,SoftwareType,DateUTC
2013-04-10 00:00:00,25.0,22.2,30.06,NNW,330,10.0,13.0,89,0.00,,,0.09,Wunderground v.1.15,2013-04-10 05:00:00,
2013-04-10 00:10:00,24.9,22.1,30.04,NNW,338,10.0,10.0,89,0.00,,,0.00,Wunderground v.1.15,2013-04-10 05:10:00,
2013-04-10 00:20:00,25.1,22.6,30.07,NW,324,8.0,12.0,90,0.00,,,0.00,Wunderground v.1.15,2013-04-10 05:20:00,
2013-04-10 00:30:00,25.1,22.3,30.02,North,8,9.0,9.0,89,0.00,,,0.00,Wunderground v.1.15,2013-04-10 05:30:00,
2013-04-10 00:40:00,25.3,22.8,30.08,WNW,300,9.0,11.0,90,0.00,,,0.00,Wunderground v.1.15,2013-04-10 05:40:00,
2013-04-10 00:50:00,25.3,22.5,30.02,WNW,299,10.0,12.0,89,0.00,,,0.00,Wunderground v.1.15,2013-04-10 05:50:00,
2013-04-10 01:00:00,25.3,22.5,30.03,NW,325,9.0,9.0,89,0.00,,,0.00,Wunderground v.1.15,2013-04-10 06:00:00,
2013-04-10 01:10:00,25.3,22.8,29.99,NNW,342,7.0,11.0,90,0.00,,,0.00,Wunderground v.1.15,2013-04-10 06:10:00,
2013-04-10 01:20:00,25.4,22.9,30.02,NW,314,9.0,11.0,90,0.00,,,0.00,Wunderground v.1.15,2013-04-10 06:20:00,
2013-04-10 01:30:00,25.6,22.8,30.04,NW,320,10.0,10.0,89,0.00,,,0.00,Wunderground v.1.15,2013-04-10 06:30:00,
2013-04-10 01:40:00,25.7,22.9,30.03,WNW,302,8.0,9.0,89,0.00,,,0.00,Wunderground v.1.15,2013-04-10 06:40:00,
2013-04-10 01:50:00,25.7,23.2,30.02,NW,308,9.0,10.0,90,0.00,,,0.00,Wunderground v.1.15,2013-04-10 06:50:00,
2013-04-10 02:00:00,25.9,23.4,30.05,WNW,298,10.0,10.0,90,0.00,,,0.00,Wunderground v.1.15,2013-04-10 07:00:00,
2013-04-10 02:10:00,26.0,23.2,30.06,NW,305,10.0,10.0,89,0.00,,,0.00,Wunderground v.1.15,2013-04-10 07:10:00,
2013-04-10 02:20:00,26.1,23.3,30.07,NW,308,9.0,9.0,89,0.00,,,0.00,Wunderground v.1.15,2013-04-10 07:20:00,
2013-04-10 02:40:00,26.4,23.9,30.08,NW,314,9.0,9.0,90,0.00,,,0.00,Wunderground v.1.15,2013-04-10 07:40:00,
2013-04-10 02:50:00,26.4,24.1,30.07,NW,313,7.0,7.0,91,0.00,,,0.00,Wunderground v.1.15,2013-04-10 07:50:00,
2013-04-10 03:00:00,26.3,24.0,30.08,WNW,300,7.0,7.0,91,0.00,,,0.00,Wunderground v.1.15,2013-04-10 08:00:00,
2013-04-10 03:10:00,26.2,23.9,30.02,North,7,6.0,8.0,91,0.00,,,0.00,Wunderground v.1.15,2013-04-10 08:10:00,
2013-04-10 03:20:00,26.2,24.2,30.05,WNW,302,7.0,10.0,92,0.00,,,0.00,Wunderground v.1.15,2013-04-10 08:20:00,
2013-04-10 03:30:00,26.1,24.4,30.06,NNW,340,9.0,9.0,93,0.00,,,0.00,Wunderground v.1.15,2013-04-10 08:30:00,
2013-04-10 03:40:00,25.9,24.2,30.05,NNW,333,8.0,12.0,93,0.00,,,0.00,Wunderground v.1.15,2013-04-10 08:40:00,
2013-04-10 03:50:00,25.9,23.9,30.06,WNW,299,9.0,9.0,92,0.00,,,0.00,Wunderground v.1.15,2013-04-10 08:50:00,
2013-04-10 04:00:00,26.1,24.1,30.06,NW,308,10.0,10.0,92,0.00,,,0.00,Wunderground v.1.15,2013-04-10 09:00:00,
2013-04-10 04:10:00,26.1,24.1,30.05,NW,325,8.0,8.0,92,0.00,,,0.00,Wunderground v.1.15,2013-04-10 09:10:00,
2013-04-10 04:20:00,25.9,23.4,30.03,NNW,330,10.0,12.0,90,0.00,,,0.00,Wunderground v.1.15,2013-04-10 09:20:00,
2013-04-10 04:30:00,25.8,23.0,30.00,NW,312,12.0,13.0,89,0.00,,,0.00,Wunderground v.1.15,2013-04-10 09:30:00,
2013-04-10 04:40:00,25.9,23.1,30.02,North,353,12.0,12.0,89,0.00,,,0.00,Wunderground v.1.15,2013-04-10 09:40:00,
2013-04-10 04:50:00,25.8,23.3,30.04,NNW,342,10.0,10.0,90,0.00,,,0.00,Wunderground v.1.15,2013-04-10 09:50:00,
2013-04-10 05:00:00,25.8,23.3,30.02,NW,321,10.0,10.0,90,0.00,,,0.00,Wunderground v.1.15,2013-04-10 10:00:00,
2013-04-10 05:10:00,25.9,23.6,30.06,WNW,300,10.0,10.0,91,0.00,,,0.00,Wunderground v.1.15,2013-04-10 10:10:00,
2013-04-10 05:20:00,25.8,23.3,30.07,NW,311,10.0,10.0,90,0.00,,,0.00,Wunderground v.1.15,2013-04-10 10:20:00,
2013-04-10 05:30:00,25.9,23.4,30.08,WNW,287,8.0,10.0,90,0.00,,,0.00,Wunderground v.1.15,2013-04-10 10:30:00,
2013-04-10 05:40:00,25.7,22.9,30.06,NNW,338,9.0,9.0,89,0.00,,,0.00,Wunderground v.1.15,2013-04-10 10:40:00,
2013-04-10 05:50:00,25.7,22.9,30.09,WNW,300,9.0,9.0,89,0.00,,,0.00,Wunderground v.1.15,2013-04-10 10:50:00,
2013-04-10 06:00:00,25.9,23.1,30.09,NW,307,10.0,10.0,89,0.00,,,0.00,Wunderground v.1.15,2013-04-10 11:00:00,
2013-04-10 06:10:00,25.9,23.1,30.08,NW,307,8.0,9.0,89,0.00,,,0.00,Wunderground v.1.15,2013-04-10 11:10:00,
2013-04-10 06:20:00,25.9,23.1,30.07,NNW,336,8.0,8.0,89,0.00,,,0.00,Wunderground v.1.15,2013-04-10 11:20:00,
2013-04-10 06:30:00,25.8,23.3,30.10,WNW,295,7.0,10.0,90,0.00,,,0.00,Wunderground v.1.15,2013-04-10 11:30:00,
2013-04-10 06:40:00,25.9,23.4,30.09,NW,309,7.0,7.0,90,0.00,,,0.00,Wunderground v.1.15,2013-04-10 11:40:00,
2013-04-10 06:50:00,25.7,23.2,30.03,NW,305,7.0,7.0,90,0.00,,,0.00,Wunderground v.1.15,2013-04-10 11:50:00,
2013-04-10 07:00:00,25.5,22.7,30.03,NNW,340,11.0,13.0,89,0.00,,,0.00,Wunderground v.1.15,2013-04-10 12:00:00,
2013-04-10 07:10:00,25.7,23.2,30.09,NW,305,9.0,9.0,90,0.00,,,0.00,Wunderground v.1.15,2013-04-10 12:10:00,
2013-04-10 07:20:00,25.6,22.8,30.07,NW,320,8.0,8.0,89,0.00,,,0.00,Wunderground v.1.15,2013-04-10 12:20:00,
2013-04-10 07:30:00,25.6,22.8,30.05,NNW,328,8.0,8.0,89,0.00,,,0.00,Wunderground v.1.15,2013-04-10 12:30:00,
2013-04-10 07:40:00,25.6,23.1,30.05,NW,322,8.0,8.0,90,0.00,,,0.00,Wunderground v.1.15,2013-04-10 12:40:00,
2013-04-10 07:50:00,25.7,22.9,30.07,NNW,336,9.0,9.0,89,0.00,,,0.00,Wunderground v.1.15,2013-04-10 12:50:00,
2013-04-10 08:00:00,25.8,23.0,30.09,NW,317,9.0,9.0,89,0.00,,,0.00,Wunderground v.1.15,2013-04-10 13:00:00,
2013-04-10 08:10:00,25.9,23.1,30.10,NNW,329,8.0,8.0,89,0.00,,,0.00,Wunderground v.1.15,2013-04-10 13:10:00,
2013-04-10 08:20:00,26.0,23.2,30.10,WNW,293,7.0,9.0,89,0.00,,,0.00,Wunderground v.1.15,2013-04-10 13:20:00,
2013-04-10 08:30:00,26.1,23.3,30.09,WNW,284,7.0,7.0,89,0.00,,,0.00,Wunderground v.1.15,2013-04-10 13:30:00,
2013-04-10 08:40:00,26.1,23.3,30.09,North,352,7.0,8.0,89,0.00,,,0.00,Wunderground v.1.15,2013-04-10 13:40:00,
2013-04-10 08:50:00,26.2,23.4,30.08,NW,306,8.0,8.0,89,0.00,,,0.00,Wunderground v.1.15,2013-04-10 13:50:00,
2013-04-10 09:00:00,26.2,23.4,30.07,NW,323,9.0,9.0,89,0.00,,,0.00,Wunderground v.1.15,2013-04-10 14:00:00,
2013-04-10 09:10:00,26.2,23.1,30.07,WNW,298,11.0,11.0,88,0.00,,,0.00,Wunderground v.1.15,2013-04-10 14:10:00,
2013-04-10 09:20:00,26.4,23.3,30.07,NW,311,11.0,11.0,88,0.00,,,0.00,Wunderground v.1.15,2013-04-10 14:20:00,
2013-04-10 09:30:00,26.5,23.2,30.09,WNW,300,9.0,19.0,87,0.00,,,0.00,Wunderground v.1.15,2013-04-10 14:30:00,
2013-04-10 09:40:00,26.5,23.2,30.09,WNW,302,11.0,11.0,87,0.00,,,0.00,Wunderground v.1.15,2013-04-10 14:40:00,
2013-04-10 09:50:00,26.6,23.3,30.11,WNW,297,10.0,10.0,87,0.00,,,0.00,Wunderground v.1.15,2013-04-10 14:50:00,
2013-04-10 10:00:00,26.7,23.1,30.12,WNW,300,10.0,10.0,86,0.00,,,0.00,Wunderground v.1.15,2013-04-10 15:00:00,
2013-04-10 10:10:00,26.8,23.2,30.10,NW,314,9.0,9.0,86,0.00,,,0.00,Wunderground v.1.15,2013-04-10 15:10:00,
2013-04-10 10:20:00,26.8,23.4,30.11,North,7,10.0,14.0,87,0.00,,,0.00,Wunderground v.1.15,2013-04-10 15:20:00,
2013-04-10 10:30:00,26.9,23.3,30.11,WNW,297,11.0,12.0,86,0.00,,,0.00,Wunderground v.1.15,2013-04-10 15:30:00,
2013-04-10 10:40:00,26.9,23.5,30.10,NW,304,9.0,9.0,87,0.00,,,0.00,Wunderground v.1.15,2013-04-10 15:40:00,
2013-04-10 10:50:00,27.0,23.6,30.11,NNW,344,10.0,10.0,87,0.00,,,0.00,Wunderground v.1.15,2013-04-10 15:50:00,
2013-04-10 11:00:00,27.0,23.4,30.11,NNW,328,10.0,10.0,86,0.00,,,0.00,Wunderground v.1.15,2013-04-10 16:00:00,
2013-04-10 11:10:00,27.1,23.5,30.11,North,353,9.0,9.0,86,0.00,,,0.00,Wunderground v.1.15,2013-04-10 16:10:00,
2013-04-10 11:20:00,27.1,23.5,30.12,NW,319,9.0,9.0,86,0.00,,,0.00,Wunderground v.1.15,2013-04-10 16:20:00,
2013-04-10 11:30:00,27.1,23.5,30.12,NW,321,9.0,9.0,86,0.00,,,0.00,Wunderground v.1.15,2013-04-10 16:30:00,
2013-04-10 11:40:00,27.1,24.0,30.13,NW,311,8.0,8.0,88,0.00,,,0.00,Wunderground v.1.15,2013-04-10 16:40:00,
2013-04-10 11:50:00,27.2,23.8,30.12,NW,316,8.0,8.0,87,0.00,,,0.00,Wunderground v.1.15,2013-04-10 16:50:00,
2013-04-10 12:00:00,27.4,24.3,30.12,NNW,336,7.0,7.0,88,0.00,,,0.00,Wunderground v.1.15,2013-04-10 17:00:00,
2013-04-10 12:10:00,27.4,23.8,30.12,NW,313,9.0,9.0,86,0.00,,,0.00,Wunderground v.1.15,2013-04-10 17:10:00,
2013-04-10 12:20:00,27.5,23.9,30.11,NW,311,9.0,9.0,86,0.00,,,0.00,Wunderground v.1.15,2013-04-10 17:20:00,
2013-04-10 12:30:00,27.7,24.3,30.10,North,8,8.0,8.0,87,0.00,,,0.00,Wunderground v.1.15,2013-04-10 17:30:00,
2013-04-10 12:40:00,27.8,24.7,30.13,West,281,6.0,6.0,88,0.00,,,0.00,Wunderground v.1.15,2013-04-10 17:40:00,
2013-04-10 12:50:00,27.8,24.4,30.11,NNW,330,8.0,8.0,87,0.00,,,0.00,Wunderground v.1.15,2013-04-10 17:50:00,
2013-04-10 13:00:00,27.8,25.0,30.10,NW,322,8.0,8.0,89,0.00,,,0.00,Wunderground v.1.15,2013-04-10 18:00:00,
2013-04-10 13:10:00,27.8,24.4,30.09,NW,319,9.0,9.0,87,0.00,,,0.00,Wunderground v.1.15,2013-04-10 18:10:00,
2013-04-10 13:20:00,27.9,25.1,30.09,WNW,301,8.0,10.0,89,0.00,,,0.00,Wunderground v.1.15,2013-04-10 18:20:00,
2013-04-10 13:30:00,28.2,25.4,30.09,WNW,300,8.0,9.0,89,0.00,,,0.00,Wunderground v.1.15,2013-04-10 18:30:00,
2013-04-10 13:40:00,28.4,25.0,30.09,WNW,302,8.0,11.0,87,0.00,,,0.00,Wunderground v.1.15,2013-04-10 18:40:00,
2013-04-10 13:50:00,28.6,25.2,30.08,NW,316,9.0,9.0,87,0.00,,,0.00,Wunderground v.1.15,2013-04-10 18:50:00,
2013-04-10 14:00:00,28.9,25.8,30.09,North,356,8.0,12.0,88,0.00,,,0.00,Wunderground v.1.15,2013-04-10 19:00:00,
2013-04-10 14:10:00,29.1,25.7,30.09,NW,314,8.0,8.0,87,0.00,,,0.00,Wunderground v.1.15,2013-04-10 19:10:00,
2013-04-10 14:20:00,29.3,26.2,30.08,WNW,303,8.0,8.0,88,0.00,,,0.00,Wunderground v.1.15,2013-04-10 19:20:00,
2013-04-10 14:30:00,29.4,26.0,30.07,NW,323,8.0,8.0,87,0.00,,,0.00,Wunderground v.1.15,2013-04-10 19:30:00,
2013-04-10 14:40:00,29.6,26.2,30.06,NNW,327,9.0,9.0,87,0.00,,,0.00,Wunderground v.1.15,2013-04-10 19:40:00,
2013-04-10 14:50:00,29.8,26.1,30.06,NW,320,8.0,8.0,86,0.00,,,0.00,Wunderground v.1.15,2013-04-10 19:50:00,
2013-04-10 15:00:00,30.0,26.6,30.05,North,350,9.0,15.0,87,0.00,,,0.00,Wunderground v.1.15,2013-04-10 20:00:00,
2013-04-10 15:10:00,30.0,26.3,30.05,NW,307,8.0,8.0,86,0.00,,,0.00,Wunderground v.1.15,2013-04-10 20:10:00,
2013-04-10 15:20:00,29.9,26.2,30.06,WNW,291,8.0,8.0,86,0.00,,,0.00,Wunderground v.1.15,2013-04-10 20:20:00,
2013-04-10 15:30:00,30.2,26.8,30.04,NNW,338,8.0,8.0,87,0.00,,,0.00,Wunderground v.1.15,2013-04-10 20:30:00,
2013-04-10 15:40:00,30.3,26.9,30.04,NNW,335,7.0,10.0,87,0.00,,,0.00,Wunderground v.1.15,2013-04-10 20:40:00,
2013-04-10 15:50:00,30.4,26.7,30.03,WNW,302,9.0,9.0,86,0.00,,,0.00,Wunderground v.1.15,2013-04-10 20:50:00,
2013-04-10 16:00:00,30.6,26.9,30.02,NW,326,8.0,8.0,86,0.00,,,0.00,Wunderground v.1.15,2013-04-10 21:00:00,
2013-04-10 16:10:00,30.7,27.3,30.01,NNW,338,9.0,9.0,87,0.00,,,0.00,Wunderground v.1.15,2013-04-10 21:10:00,
2013-04-10 16:20:00,30.6,26.9,30.00,NW,312,8.0,8.0,86,0.00,,,0.00,Wunderground v.1.15,2013-04-10 21:20:00,
2013-04-10 16:30:00,30.6,26.9,30.00,NW,309,8.0,10.0,86,0.00,,,0.00,Wunderground v.1.15,2013-04-10 21:30:00,
2013-04-10 16:40:00,30.4,26.4,30.00,NW,322,9.0,9.0,85,0.00,,,0.00,Wunderground v.1.15,2013-04-10 21:40:00,
2013-04-10 16:50:00,30.3,26.6,30.00,NNW,329,9.0,10.0,86,0.00,,,0.00,Wunderground v.1.15,2013-04-10 21:50:00,
2013-04-10 17:00:00,30.3,26.6,30.00,WNW,301,8.0,10.0,86,0.00,,,0.00,Wunderground v.1.15,2013-04-10 22:00:00,
2013-04-10 17:10:00,30.3,26.6,30.00,WNW,290,9.0,9.0,86,0.00,,,0.00,Wunderground v.1.15,2013-04-10 22:10:00,
2013-04-10 17:20:00,30.2,26.5,30.01,NW,306,8.0,10.0,86,0.00,,,0.00,Wunderground v.1.15,2013-04-10 22:20:00,
2013-04-10 17:30:00,30.2,26.2,30.02,NW,305,8.0,8.0,85,0.00,,,0.00,Wunderground v.1.15,2013-04-10 22:30:00,
2013-04-10 17:40:00,30.3,26.6,30.02,NW,323,8.0,8.0,86,0.00,,,0.00,Wunderground v.1.15,2013-04-10 22:40:00,
2013-04-10 17:50:00,30.4,26.7,30.02,NW,313,7.0,8.0,86,0.00,,,0.00,Wunderground v.1.15,2013-04-10 22:50:00,
2013-04-10 18:00:00,30.2,26.2,30.01,WNW,301,9.0,9.0,85,0.00,,,0.00,Wunderground v.1.15,2013-04-10 23:00:00,
2013-04-10 18:10:00,30.2,26.5,30.01,WNW,300,8.0,10.0,86,0.00,,,0.00,Wunderground v.1.15,2013-04-10 23:10:00,
2013-04-10 18:20:00,30.2,26.8,30.01,NW,307,8.0,9.0,87,0.00,,,0.00,Wunderground v.1.15,2013-04-10 23:20:00,
2013-04-10 18:30:00,29.9,26.8,30.00,NNW,330,9.0,14.0,88,0.00,,,0.00,Wunderground v.1.15,2013-04-10 23:30:00,
2013-04-10 18:40:00,29.7,26.9,30.00,NNW,336,9.0,12.0,89,0.00,,,0.00,Wunderground v.1.15,2013-04-10 23:40:00,
2013-04-10 18:50:00,29.6,26.8,30.00,NNW,330,9.0,9.0,89,0.00,,,0.00,Wunderground v.1.15,2013-04-10 23:50:00,
2013-04-10 19:00:00,29.4,26.8,30.00,NNW,340,8.0,9.0,90,0.00,,,0.00,Wunderground v.1.15,2013-04-11 00:00:00,
2013-04-10 19:10:00,29.3,27.0,29.99,NW,306,8.0,13.0,91,0.00,,,0.00,Wunderground v.1.15,2013-04-11 00:10:00,
2013-04-10 19:20:00,29.1,26.8,30.00,NW,307,8.0,9.0,91,0.00,,,0.00,Wunderground v.1.15,2013-04-11 00:20:00,
2013-04-10 19:30:00,28.9,26.9,30.00,WNW,297,8.0,8.0,92,0.00,,,0.00,Wunderground v.1.15,2013-04-11 00:30:00,
2013-04-10 19:40:00,28.9,26.9,30.00,NW,315,7.0,7.0,92,0.00,,,0.00,Wunderground v.1.15,2013-04-11 00:40:00,
2013-04-10 19:50:00,28.8,26.8,30.00,WNW,302,6.0,11.0,92,0.00,,,0.00,Wunderground v.1.15,2013-04-11 00:50:00,
2013-04-10 20:00:00,28.6,26.3,30.00,NW,320,8.0,8.0,91,0.00,,,0.00,Wunderground v.1.15,2013-04-11 01:00:00,
2013-04-10 20:10:00,28.6,26.3,30.00,WNW,299,8.0,8.0,91,0.00,,,0.00,Wunderground v.1.15,2013-04-11 01:10:00,
2013-04-10 20:20:00,28.7,26.4,30.00,NNW,336,6.0,6.0,91,0.00,,,0.00,Wunderground v.1.15,2013-04-11 01:20:00,